Wind_Speed
23 24 24 23 23 23 25 27 27 27 27 26 26 26 26 26 26 26 26 26 26 26 26 25 25 25 24 24 24 24 23 23 23 23 23 23 23 24 24 25 25 26 27 27 28 28 28 28 28 28 28 28 27 28 28 28 28 28 28 28 27 27 26 26 25 25 25 25 25
24 25 25 25 26 27 29 29 29 29 28 27 27 27 27 27 27 28 28 28 28 27 26 25 25 24 24 24 24 24 24 23 23 23 23 24 24 24 25 25 26 26 26 27 27 27 27 27 27 27 26 26 26 26 26 26 26 26 26 26 26 26 26 26 26 26 26 25 25
26 26 26 27 28 30 31 31 31 30 29 28 28 28 28 28 28 29 29 29 28 27 26 26 25 25 25 24 24 24 24 24 24 24 24 24 24 25 25 25 25 25 26 26 26 26 26 26 26 26 25 25 25 25 25 25 25 25 26 26 26 26 26 26 27 26 26 25 26
28 28 28 29 29 30 31 32 31 31 30 30 29 29 29 29 29 30 29 29 28 28 27 27 26 26 26 26 25 25 25 24 24 24 24 24 24 24 24 24 25 25 25 25 26 25 25 25 25 25 25 24 24 24 24 24 24 25 25 26 26 26 27 27 27 26 26 26 27
30 30 30 30 31 31 32 32 32 32 31 31 31 31 31 31 31 31 31 30 29 29 28 28 27 27 27 26 26 25 25 24 24 24 24 24 24 24 24 24 24 24 24 25 25 24 24 24 24 24 24 24 24 24 24 24 24 24 24 25 25 26 27 27 26 26 26 27 28
31 32 32 32 32 32 32 32 33 33 33 32 32 32 32 32 32 32 32 32 31 30 29 28 28 27 27 26 25 25 25 24 24 24 24 23 23 23 23 23 24 24 24 24 24 24 24 24 24 24 24 24 24 24 24 24 24 23 23 23 24 25 26 27 28 28 28 29 30
33 33 33 34 34 34 34 34 34 34 34 34 34 34 34 33 33 33 32 32 31 30 29 28 28 27 27 26 25 25 24 24 23 23 23 23 23 23 23 23 23 23 23 24 24 24 24 24 24 24 24 24 24 24 24 24 24 24 23 23 24 25 25 26 27 28 29 29 30
33 34 34 35 35 35 35 35 35 34 34 34 35 35 34 34 33 32 31 31 30 29 29 28 28 27 26 25 24 24 23 23 22 22 22 22 22 22 23 23 23 23 24 24 24 24 24 24 24 24 24 24 24 24 24 24 24 24 24 24 24 24 24 24 25 25 25 25 25
32 33 34 34 35 35 35 35 35 35 35 35 35 35 35 34 33 32 32 31 30 29 28 27 26 25 24 24 23 22 22 22 22 22 22 22 22 22 23 23 23 24 24 24 24 24 24 24 24 24 24 24 24 24 24 24 24 25 25 24 24 23 22 22 21 21 21 20 20
31 31 32 32 33 33 34 34 34 34 34 35 34 34 34 33 33 32 30 29 28 27 26 25 24 23 23 22 22 22 22 22 22 22 22 22 22 22 23 23 23 24 24 24 24 24 24 24 24 24 24 24 24 24 24 24 24 23 23 23 22 21 21 20 19 18 17 17 16
30 30 30 30 30 31 31 32 32 33 33 33 32 32 31 30 29 28 27 26 25 24 23 22 22 21 21 21 21 21 21 21 22 22 22 22 22 23 23 23 23 23 24 24 24 24 24 23 23 23 23 23 23 23 23 22 22 21 21 20 20 19 19 19 18 17 16 16 16
29 28 28 27 27 28 28 28 29 29 29 29 28 27 27 26 25 24 23 22 21 21 21 21 20 20 20 21 21 21 21 22 22 22 22 22 23 23 23 23 23 23 23 23 23 23 23 23 22 22 22 22 22 22 22 21 21 20 19 18 18 18 18 18 17 17 16 17 18
27 26 26 25 25 25 25 25 25 24 24 24 23 23 22 22 21 21 20 20 20 19 19 19 20 20 20 21 21 21 22 22 22 22 22 23 23 23 23 23 23 22 22 22 22 22 22 22 21 21 21 21 21 21 20 20 20 19 18 18 18 18 19 19 18 17 18 19 20
25 25 24 23 23 22 22 21 21 21 20 20 20 20 20 19 19 19 19 19 19 19 19 19 20 20 20 21 21 22 22 22 22 22 23 23 23 23 22 22 22 21 21 20 20 20 20 20 20 20 20 19 19 19 19 19 18 18 18 18 19 20 20 20 19 19 20 20 21
24 23 22 21 21 20 20 19 19 19 19 19 19 18 18 18 18 18 18 19 19 19 19 20 20 20 21 21 22 22 22 22 22 23 23 22 22 22 22 21 21 21 20 20 20 19 19 19 19 19 18 18 18 18 17 17 17 17 17 18 20 20 20 20 20 20 20 21 21
23 22 21 20 19 19 18 18 18 18 18 18 18 18 18 18 18 18 18 19 19 19 20 20 21 21 21 22 22 22 22 22 22 22 22 22 22 21 21 21 21 20 20 20 19 19 19 19 19 18 18 17 17 17 16 16 16 16 17 18 19 19 19 19 19 19 20 20 19
22 21 20 19 19 18 18 18 18 18 18 18 18 18 18 19 19 19 19 19 19 20 20 20 21 21 22 22 22 22 22 22 22 22 22 21 21 21 21 21 21 21 21 20 20 19 19 19 19 18 18 17 17 17 17 16 16 17 17 17 18 18 18 18 18 18 18 18 18
22 21 20 19 18 18 18 18 18 18 18 18 19 19 19 19 19 19 19 19 19 20 20 20 21 21 21 21 21 21 21 21 22 22 22 22 21 21 21 21 21 21 21 21 21 20 20 20 19 19 19 19 18 18 18 18 18 18 18 18 18 18 18 18 18 18 18 18 18
21 20 19 19 19 18 18 18 18 19 19 19 19 19 19 19 19 19 19 19 19 19 19 20 20 20 20 20 21 21 21 21 21 22 22 22 22 22 22 22 22 22 22 21 21 21 21 21 21 21 21 20 20 20 20 19 19 19 19 19 19 19 19 19 19 19 19 19 19
20 19 19 19 19 19 19 19 19 19 19 19 19 19 18 18 18 18 18 18 18 18 18 19 19 19 20 20 20 21 21 21 21 22 22 22 22 22 22 22 22 22 22 22 22 22 22 22 23 22 22 22 22 21 21 21 21 21 21 20 20 20 20 20 20 21 21 21 21
19 19 19 19 19 19 19 19 19 19 19 18 18 18 17 17 17 16 16 17 17 17 17 17 18 19 19 20 20 21 21 22 22 22 22 23 23 23 23 23 23 24 24 24 24 24 24 24 24 24 24 23 23 23 23 22 22 22 22 22 21 21 21 21 22 22 22 22 22
19 19 19 19 19 19 19 19 18 18 17 17 16 16 15 15 14 14 15 15 15 16 16 17 17 18 19 20 20 21 22 22 23 23 23 23 24 24 24 25 25 25 25 25 25 25 25 25 25 25 25 24 24 24 24 23 23 23 22 22 22 22 22 22 22 23 23 23 23
19 19 19 19 19 19 18 18 17 16 16 15 14 13 13 13 12 13 13 14 14 15 16 16 17 18 19 19 20 21 22 22 23 24 24 24 25 25 25 26 26 26 26 26 26 26 26 25 25 25 25 25 25 24 24 24 24 23 23 22 22 22 22 23 23 23 23 22 22
19 19 19 19 19 18 17 16 15 14 14 13 12 11 11 11 11 11 12 12 13 14 15 16 17 17 18 19 20 21 21 22 23 24 25 25 25 26 26 27 27 27 27 27 27 26 26 26 26 25 25 25 25 24 24 24 23 23 22 22 22 22 22 22 22 22 22 21 21
20 19 19 18 18 17 16 15 14 13 12 11 11 10 10 10 10 10 11 12 13 14 14 15 16 17 18 19 20 21 22 23 23 24 25 25 26 27 27 28 28 27 27 27 27 27 27 26 26 25 25 25 24 24 24 23 23 23 22 22 22 22 22 22 21 21 21 20 20
20 19 18 18 17 16 15 14 13 12 12 11 10 10 10 10 10 11 11 12 12 13 14 15 16 17 19 20 21 21 22 23 24 25 25 26 27 27 28 29 29 28 28 28 28 28 27 27 26 25 25 24 24 23 23 23 22 22 22 21 21 21 21 21 20 20 19 18 18
20 19 18 17 16 16 15 14 13 12 12 11 11 11 11 11 11 11 11 12 13 14 15 16 17 18 19 20 21 22 23 24 25 25 26 27 27 28 29 29 29 29 28 28 28 28 27 27 26 25 24 24 23 23 22 22 22 21 21 21 20 20 20 19 18 18 17 16 16
20 19 18 17 16 16 15 14 14 13 13 12 12 12 12 12 12 12 12 13 13 14 15 16 17 18 19 20 21 22 23 24 25 26 27 27 28 29 29 30 30 29 28 28 28 28 27 27 26 25 24 23 22 22 21 21 21 20 20 20 19 19 18 18 17 16 15 15 14
20 19 18 17 17 16 15 15 14 14 13 13 13 13 13 13 13 13 13 14 15 15 16 17 18 19 20 21 22 23 24 25 26 26 27 28 29 29 30 30 29 29 28 28 27 27 27 26 25 25 24 22 22 21 20 20 19 19 19 18 18 18 17 16 16 15 14 13 12
20 19 18 18 17 17 16 15 15 15 14 14 14 14 14 14 14 14 15 15 16 17 18 18 19 20 21 22 23 24 25 25 26 27 27 28 29 29 29 29 28 28 27 27 26 26 26 25 25 24 23 21 20 19 19 18 18 18 17 17 16 15 14 14 13 12 12 12 12
20 20 19 18 18 17 17 16 16 16 15 15 15 15 15 15 15 15 16 17 17 18 19 20 20 21 22 23 24 25 25 26 26 27 27 27 28 28 28 27 26 26 25 25 25 24 24 24 24 23 21 20 19 18 17 17 16 16 15 14 13 12 12 11 11 11 11 11 12
21 20 20 19 19 18 18 17 17 17 16 16 16 16 16 16 16 16 17 18 19 19 20 21 22 22 23 24 25 26 26 27 27 27 27 27 26 25 25 24 23 23 22 22 22 22 22 22 22 21 20 18 17 16 16 15 14 13 13 12 11 11 11 11 11 11 11 12 12
22 21 20 20 19 19 18 18 18 18 17 17 17 17 17 16 17 17 18 19 20 20 21 22 22 23 23 24 25 26 26 27 27 27 26 24 23 22 21 20 20 20 19 19 19 20 20 20 20 19 17 16 15 15 14 13 12 12 11 11 11 11 11 11 11 12 12 12 12
23 22 21 21 20 20 19 19 19 19 18 18 18 18 18 17 17 18 19 20 21 21 22 23 23 23 24 24 25 25 25 25 25 25 23 22 21 19 19 18 18 17 17 17 17 17 18 18 18 17 15 14 14 13 13 12 12 11 11 11 12 12 12 12 12 12 12 12 12
24 23 22 21 21 20 20 20 20 19 19 19 19 19 18 18 18 19 20 21 21 22 23 23 24 24 25 25 25 24 23 23 22 22 21 20 18 17 17 17 16 15 15 14 15 15 16 17 16 15 14 14 13 13 12 12 12 12 12 12 12 12 12 12 12 12 12 12 12
25 24 23 23 22 21 21 21 20 20 20 20 20 19 19 19 19 20 21 21 22 23 23 24 25 25 24 24 23 22 21 20 20 19 19 18 17 16 15 15 14 13 13 13 14 15 16 15 14 13 13 13 13 13 13 12 12 12 12 12 12 12 12 12 12 12 12 12 12
26 25 25 24 23 23 22 22 21 21 21 21 21 20 20 20 20 21 21 22 22 23 23 24 24 24 23 22 21 20 19 19 17 17 16 16 15 14 14 13 12 12 12 13 14 15 15 14 13 13 13 13 13 13 13 13 13 13 13 13 13 12 12 12 12 12 12 12 11
28 27 26 26 25 24 23 23 22 22 22 22 21 21 20 20 20 21 22 22 22 22 23 24 24 23 22 21 19 18 17 17 15 14 14 14 13 13 12 12 11 12 12 13 14 14 14 14 13 13 13 13 13 13 13 13 13 13 13 13 13 12 12 12 12 12 12 12 11
30 29 28 27 26 26 25 24 23 23 22 22 22 21 21 21 21 21 22 22 22 22 22 22 22 22 21 19 18 16 15 14 13 12 12 12 12 12 12 11 11 12 13 14 14 14 14 14 14 13 13 13 13 13 13 13 13 13 13 13 12 12 12 12 12 12 12 12 12
31 30 30 29 28 27 26 25 24 23 23 23 22 22 21 21 21 21 21 21 22 22 22 21 21 21 20 18 16 14 13 12 12 11 11 11 11 11 11 11 11 12 13 13 14 14 14 14 14 14 14 14 13 13 13 12 12 12 12 12 12 12 12 12 12 12 12 12 12
31 31 30 29 28 27 26 25 24 24 24 23 23 22 22 21 21 21 21 21 21 21 21 20 20 19 18 17 14 13 12 11 11 11 11 11 11 11 11 10 10 11 12 13 13 14 14 14 14 14 14 14 13 13 13 12 12 12 12 12 12 12 12 12 12 12 12 12 12
Wind_Direction
220 225 229 231 230 226 223 224 227 228 229 229 229 229 229 229 228 229 231 233 234 236 236 236 237 238 239 241 244 246 249 251 254 256 257 259 261 263 265 266 266 267 268 268 269 269 270 269 269 269 269 268 268 267 267 267 267 267 267 267 267 268 268 268 268 268 269 269 270
225 227 228 227 226 225 225 226 228 229 229 228 229 230 230 230 230 231 232 233 235 236 236 237 238 240 242 245 247 250 252 254 256 258 259 261 263 265 267 268 269 270 270 271 272 272 272 272 272 271 271 270 270 269 269 268 268 268 267 267 267 267 267 266 267 269 270 269 269
227 229 228 227 226 226 227 228 229 229 228 228 229 229 230 230 231 232 234 235 236 237 238 239 241 243 246 249 252 254 256 257 259 260 262 264 265 267 268 269 270 271 271 272 272 272 272 272 272 272 271 271 270 270 269 269 268 267 267 266 267 266 266 266 267 268 268 266 265
228 229 230 229 228 228 229 229 229 229 228 228 228 229 230 231 232 234 236 238 239 240 241 243 246 248 251 254 256 257 259 260 261 262 264 265 266 267 268 269 270 271 271 271 271 271 271 272 271 271 271 271 270 270 269 268 267 266 265 265 265 264 264 265 265 265 264 262 263
228 230 231 231 230 230 230 230 229 228 228 228 228 229 230 231 233 236 238 240 241 243 245 247 250 252 255 257 258 259 260 261 262 263 264 265 266 267 269 270 271 271 271 271 271 270 271 271 271 271 271 271 271 270 270 269 267 265 263 262 262 261 261 261 260 260 260 261 262
228 230 232 232 232 231 230 230 229 228 228 228 228 228 229 230 232 234 236 239 241 244 246 249 252 255 256 258 258 259 260 261 262 263 264 265 266 268 269 270 271 271 270 270 269 269 270 270 271 271 272 272 272 271 270 269 268 266 263 261 259 258 258 258 258 258 259 260 261
230 231 231 232 232 231 231 231 230 230 229 229 229 229 229 230 231 232 234 238 241 245 248 251 253 255 256 257 258 259 260 261 262 263 264 265 267 268 269 270 270 270 269 269 269 269 270 270 271 271 271 271 271 271 270 269 268 267 264 261 259 257 256 256 256 257 258 259 261
231 231 232 232 233 232 232 232 232 232 231 231 231 231 232 233 234 236 238 242 245 248 251 253 254 255 256 257 258 259 260 261 262 263 264 265 267 268 269 269 270 270 269 270 270 270 271 271 271 271 271 271 271 270 270 269 268 266 265 264 262 260 259 257 258 258 259 260 262
233 233 234 234 234 235 235 235 235 235 235 234 235 236 237 239 241 244 246 248 250 252 253 253 254 255 256 257 258 259 260 260 261 262 264 266 267 268 269 269 270 270 270 271 271 271 272 272 272 272 272 271 271 270 270 269 268 268 267 267 266 265 264 263 262 261 262 263 265
238 238 238 238 238 239 239 239 239 239 239 239 240 241 243 244 246 248 249 250 251 251 252 252 253 254 256 257 258 258 259 260 262 263 265 266 268 268 269 270 270 271 271 272 272 272 272 272 272 272 272 271 271 271 271 271 270 270 270 270 270 271 270 268 265 264 264 266 267
244 244 244 243 243 243 243 242 242 242 242 243 244 245 245 246 247 248 248 248 249 249 250 251 253 254 255 256 257 258 259 261 263 265 266 267 268 269 270 270 271 271 271 272 271 271 271 271 271 271 272 272 272 272 271 271 271 270 270 270 271 272 271 267 262 261 265 267 266
247 247 246 246 245 245 245 244 244 244 244 244 244 245 245 245 245 245 245 245 246 247 248 250 251 253 254 255 257 258 260 262 263 265 266 268 269 269 270 270 271 271 271 271 271 270 270 270 270 271 271 272 272 272 272 271 270 268 266 266 266 266 263 256 253 257 265 267 263
248 248 248 247 246 246 245 244 244 243 243 243 243 243 242 242 242 242 243 243 245 246 248 249 251 252 254 256 257 259 261 262 264 265 266 267 268 269 270 270 270 270 270 270 270 270 270 270 270 270 271 271 271 271 271 270 268 265 262 260 258 256 253 250 251 257 262 262 258
249 249 249 248 247 245 244 243 242 242 241 241 240 240 240 240 241 241 242 244 245 247 248 250 252 253 255 257 258 260 261 262 264 265 266 267 268 269 269 270 270 269 269 269 269 269 270 270 270 270 270 270 270 270 269 268 266 263 259 256 252 250 249 249 253 256 257 255 253
248 248 248 247 245 243 241 240 239 239 239 238 238 239 239 240 241 243 244 246 247 249 251 252 254 255 256 258 259 260 261 263 264 265 266 267 268 268 269 268 268 268 267 267 267 267 268 268 269 268 268 268 267 267 267 265 262 258 254 250 249 248 248 250 253 254 254 254 255
245 245 244 242 240 238 237 236 236 236 236 237 238 238 240 241 243 245 246 248 249 251 253 254 255 257 258 259 260 261 262 263 265 266 267 267 268 268 267 267 266 266 266 265 265 265 265 266 266 266 265 264 264 263 262 260 257 253 249 247 248 249 251 252 254 254 255 256 257
242 240 238 236 234 233 232 232 232 233 234 235 237 238 240 242 244 246 247 249 251 252 254 255 256 257 259 260 261 262 263 265 266 267 267 267 267 267 266 266 265 265 265 265 264 264 263 263 263 263 262 261 260 259 258 257 255 253 251 250 251 252 253 254 255 256 257 258 258
237 234 232 230 229 229 229 229 230 231 233 235 237 239 241 243 245 246 248 249 251 252 254 256 257 258 260 261 263 264 265 266 267 268 268 268 267 267 267 266 266 266 266 265 265 264 263 262 262 261 260 260 259 258 258 257 256 256 256 256 256 256 256 256 257 257 258 258 258
231 229 227 226 226 226 227 228 229 231 233 235 237 239 241 243 245 247 248 250 251 253 255 257 258 260 262 263 265 266 267 268 269 269 270 270 270 269 269 268 268 267 266 266 265 264 263 262 261 260 260 259 259 259 259 258 259 259 259 260 260 260 259 259 258 258 258 258 258
227 226 225 225 225 226 227 229 230 232 234 236 238 240 242 243 245 247 249 251 252 254 256 259 261 263 265 267 268 269 270 270 271 271 272 272 272 271 271 270 268 267 266 265 264 263 262 261 260 260 260 260 260 260 260 260 260 261 261 261 261 261 261 261 260 260 260 259 259
224 224 225 226 226 228 229 230 232 233 235 236 238 239 241 243 246 248 251 254 256 258 261 263 266 268 270 271 272 273 273 273 273 273 273 273 273 272 271 269 268 266 265 264 263 262 261 261 260 260 260 260 260 260 261 261 262 262 262 261 261 261 261 261 261 261 261 261 261
223 225 226 227 228 229 230 231 232 233 234 235 237 239 241 244 248 251 255 259 262 265 267 269 271 272 273 274 275 275 275 275 274 274 273 272 271 271 270 268 267 266 265 264 263 262 261 261 260 260 260 260 260 261 261 262 262 262 262 262 262 261 261 261 261 262 262 262 263
224 226 227 228 229 229 229 229 230 230 231 233 236 238 242 246 250 254 259 263 266 269 271 273 274 275 276 276 277 277 276 276 275 274 273 272 270 269 269 268 266 265 264 263 262 261 261 260 260 260 260 261 261 262 262 262 263 263 262 262 262 262 262 261 261 262 262 263 264
225 226 227 227 226 226 226 226 226 227 229 231 234 237 241 246 251 256 261 265 269 272 275 277 279 280 280 280 280 280 279 278 277 276 274 272 270 269 268 267 265 264 263 263 262 261 261 260 260 260 261 261 262 262 263 263 263 263 263 263 263 263 262 262 263 263 264 264 264
225 225 224 224 223 222 222 221 222 223 225 228 232 236 241 246 252 257 263 268 273 277 280 283 284 285 286 286 285 284 283 282 281 279 277 274 272 269 267 266 264 263 263 262 262 261 261 260 260 261 261 261 262 262 263 264 264 264 264 264 263 263 263 264 265 265 265 264 263
224 222 220 219 218 217 217 218 219 221 224 227 231 236 241 246 252 259 265 272 277 281 285 287 289 290 291 290 290 289 287 285 283 282 280 277 274 271 268 266 264 262 262 262 261 261 261 260 260 261 261 262 263 263 264 265 265 265 264 264 264 264 264 265 265 265 264 262 259
220 218 216 214 214 214 215 216 218 221 224 228 232 237 242 248 255 262 269 275 280 284 287 290 292 293 293 293 292 291 289 287 285 283 281 278 276 273 271 268 265 263 262 261 261 261 261 261 261 261 261 262 263 264 265 265 265 264 264 264 264 264 264 264 263 262 259 256 253
217 215 213 213 213 214 216 218 220 224 227 231 235 240 246 252 259 265 271 276 281 285 288 290 292 293 294 294 293 291 289 287 284 282 280 278 276 274 272 269 267 264 262 261 260 261 261 261 261 262 262 263 263 264 264 264 263 263 262 262 262 262 262 260 258 255 252 250 247
215 213 213 214 215 217 219 221 224 227 231 235 240 245 251 257 262 268 273 278 282 285 288 290 292 294 294 294 293 290 288 286 283 281 279 278 276 274 271 269 266 264 262 260 259 259 260 261 262 262 263 263 263 262 262 260 260 259 259 259 259 259 258 255 253 249 245 241 237
215 214 215 216 218 221 223 226 229 232 236 241 245 251 256 261 266 271 276 280 284 287 289 291 293 294 295 294 293 290 288 286 284 282 279 277 275 273 270 268 265 262 260 259 258 258 259 260 261 262 262 262 261 260 258 256 255 255 255 255 255 253 251 248 245 240 235 231 228
217 217 218 220 222 225 227 230 233 236 240 245 250 255 259 264 268 273 278 282 285 287 290 292 294 295 296 295 294 292 290 288 286 283 281 278 274 272 269 267 264 262 260 258 257 257 258 259 260 260 260 259 257 254 252 251 251 250 249 248 246 244 241 237 234 230 227 225 224
220 221 222 224 226 229 231 234 237 240 244 249 253 257 262 266 270 275 279 282 285 288 290 293 295 296 296 296 294 293 291 289 287 285 283 279 276 272 269 267 264 262 260 258 257 256 257 257 257 257 255 253 249 247 246 245 245 243 240 237 235 233 231 229 227 225 224 224 223
225 226 227 228 230 232 235 238 241 244 248 252 256 260 263 267 272 276 280 283 285 288 291 294 296 296 296 294 293 292 290 289 288 286 285 282 278 273 268 265 263 261 259 257 256 255 254 254 253 251 248 244 241 240 239 238 235 232 229 227 227 227 227 225 225 224 224 223 222
230 231 232 233 235 236 239 241 244 247 251 254 258 261 265 269 273 277 281 284 286 289 293 295 296 297 295 294 292 290 289 288 288 287 286 284 280 274 268 263 261 259 257 255 252 250 248 248 247 243 239 235 233 232 231 228 226 224 222 222 223 224 224 223 223 222 222 221 220
235 236 237 238 239 240 242 244 247 250 253 256 259 263 266 270 273 277 281 284 287 290 293 296 297 297 296 294 292 290 289 288 288 287 285 283 279 274 267 261 259 256 253 249 244 242 241 241 239 234 229 227 226 225 224 221 219 217 218 219 220 221 221 221 220 220 219 218 217
240 241 242 243 243 244 245 247 249 252 254 257 260 263 266 270 274 277 280 284 287 290 293 295 296 296 295 293 291 290 289 288 288 286 284 281 278 272 266 260 257 252 245 238 233 232 234 234 230 226 222 221 221 220 218 216 215 215 215 216 217 218 218 217 216 216 215 214 213
243 244 246 246 247 248 248 249 251 253 255 257 260 263 266 269 273 277 280 284 288 291 293 295 295 295 293 290 288 287 288 288 287 285 283 281 277 271 264 259 252 243 233 226 225 227 228 226 222 219 217 217 217 216 215 214 214 214 214 214 214 214 213 213 211 211 210 210 210
246 247 248 249 249 250 250 251 252 253 255 257 260 262 265 268 272 276 280 284 288 292 294 295 295 293 291 287 285 284 285 286 284 282 279 277 274 269 263 255 244 233 225 221 222 222 222 219 216 214 214 214 214 213 213 213 213 213 213 212 211 210 209 209 207 207 207 208 210
248 249 249 250 250 251 251 252 252 254 255 257 259 261 264 268 272 276 280 285 290 293 294 294 293 290 287 283 281 281 281 281 279 275 271 270 268 265 260 251 238 227 221 219 219 218 216 214 212 210 210 210 210 210 211 211 211 211 211 210 208 207 207 207 207 207 207 209 212
251 251 251 251 251 252 252 253 253 254 255 256 258 260 263 267 271 276 281 288 293 295 295 292 289 285 281 278 276 275 274 273 270 266 263 262 263 261 257 248 234 224 218 217 216 214 213 211 209 207 206 206 206 206 207 208 208 208 208 208 207 207 208 209 211 211 213 214 216
253 253 253 253 253 253 253 253 253 253 254 255 257 259 263 266 271 277 283 290 295 296 294 290 285 280 275 272 270 268 266 262 259 256 255 255 257 257 253 245 232 221 215 214 213 212 210 208 205 204 204 203 203 203 203 204 205 206 206 207 208 210 212 215 217 219 220 221 222
Height
1519 1521 1522 1522 1523 1524 1525 1526 1528 1528 1529 1530 1531 1531 1532 1533 1534 1534 1534 1535 1535 1535 1535 1536 1536 1537 1537 1538 1539 1539 1539 1539 1540 1540 1540 1540 1541 1541 1541 1541 1541 1541 1541 1541 1541 1541 1540 1540 1540 1539 1539 1539 1540 1539 1539 1540 1540 1540 1540 1540 1539 1539 1539 1539 1539 1539 1539 1539 1539
1518 1520 1521 1521 1522 1523 1524 1525 1526 1527 1528 1528 1529 1530 1530 1531 1532 1532 1532 1533 1533 1533 1534 1534 1535 1535 1536 1536 1537 1537 1538 1538 1538 1539 1539 1539 1539 1539 1539 1539 1539 1539 1539 1539 1539 1539 1538 1538 1538 1538 1537 1538 1538 1538 1538 1538 1538 1538 1538 1538 1538 1538 1538 1538 1538 1538 1538 1538 1538
1517 1518 1519 1520 1521 1522 1522 1523 1524 1525 1526 1526 1527 1528 1529 1529 1529 1530 1530 1530 1531 1531 1532 1532 1533 1534 1534 1535 1535 1535 1536 1536 1537 1537 1537 1537 1537 1537 1537 1537 1537 1537 1537 1537 1537 1536 1536 1536 1536 1536 1535 1536 1536 1536 1536 1536 1536 1536 1536 1536 1536 1536 1536 1536 1536 1536 1537 1537 1537
1516 1517 1518 1518 1519 1520 1521 1522 1523 1523 1524 1525 1525 1526 1527 1527 1528 1528 1528 1528 1529 1529 1530 1531 1531 1532 1532 1533 1534 1534 1534 1534 1535 1535 1535 1535 1535 1535 1535 1535 1535 1535 1535 1535 1535 1534 1534 1534 1534 1534 1534 1534 1534 1534 1534 1534 1534 1534 1534 1534 1534 1534 1534 1534 1534 1535 1535 1535 1535
1515 1516 1516 1517 1518 1519 1519 1520 1521 1522 1523 1523 1524 1524 1524 1525 1526 1526 1526 1527 1527 1528 1529 1529 1530 1530 1531 1531 1532 1532 1532 1533 1533 1533 1533 1533 1533 1533 1533 1533 1533 1533 1533 1533 1533 1533 1533 1533 1532 1532 1532 1532 1532 1532 1532 1532 1532 1533 1533 1533 1533 1533 1533 1533 1533 1533 1533 1533 1533
1514 1514 1515 1516 1516 1517 1518 1519 1519 1520 1521 1522 1522 1523 1523 1523 1524 1524 1525 1525 1526 1526 1527 1528 1528 1529 1529 1530 1530 1530 1530 1531 1531 1531 1531 1531 1531 1531 1531 1531 1531 1531 1531 1531 1531 1531 1531 1531 1531 1530 1530 1530 1530 1530 1530 1530 1530 1530 1531 1531 1531 1531 1531 1531 1531 1531 1531 1531 1531
1512 1513 1513 1514 1515 1515 1516 1517 1518 1518 1519 1520 1521 1521 1521 1522 1522 1523 1523 1524 1524 1524 1525 1526 1527 1527 1528 1528 1528 1528 1529 1529 1529 1529 1529 1529 1529 1529 1529 1529 1529 1529 1529 1529 1529 1529 1529 1529 1529 1529 1529 1529 1529 1529 1529 1529 1529 1529 1529 1529 1529 1529 1529 1529 1529 1529 1529 1529 1529
1510 1511 1511 1512 1513 1514 1514 1515 1516 1517 1518 1519 1519 1519 1520 1520 1520 1521 1521 1522 1522 1523 1524 1524 1525 1525 1526 1526 1526 1526 1526 1527 1527 1527 1527 1527 1527 1527 1527 1527 1528 1527 1527 1527 1527 1527 1527 1527 1527 1527 1527 1527 1527 1527 1527 1527 1527 1527 1527 1527 1527 1527 1527 1527 1527 1528 1528 1528 1527
1508 1509 1510 1510 1511 1512 1513 1514 1514 1515 1516 1517 1518 1518 1519 1519 1519 1519 1520 1521 1522 1522 1522 1523 1523 1523 1524 1524 1524 1524 1524 1524 1524 1525 1525 1525 1525 1525 1525 1525 1525 1525 1525 1525 1525 1525 1525 1525 1525 1525 1525 1525 1525 1525 1525 1525 1525 1525 1525 1525 1525 1525 1525 1525 1525 1526 1526 1526 1525
1507 1508 1509 1509 1510 1511 1512 1513 1513 1514 1515 1515 1516 1517 1518 1518 1519 1519 1519 1520 1520 1520 1520 1521 1521 1521 1521 1522 1522 1522 1522 1522 1523 1523 1523 1523 1523 1524 1524 1524 1524 1524 1524 1524 1524 1524 1524 1523 1523 1523 1523 1523 1523 1523 1523 1523 1523 1523 1523 1523 1523 1523 1523 1523 1524 1524 1524 1524 1524
1506 1506 1507 1508 1509 1509 1510 1511 1512 1512 1513 1514 1514 1515 1516 1516 1517 1517 1518 1518 1518 1518 1518 1519 1519 1519 1519 1520 1520 1520 1520 1521 1521 1521 1521 1521 1521 1522 1522 1522 1522 1522 1522 1522 1522 1522 1522 1521 1521 1521 1521 1521 1521 1521 1521 1521 1521 1521 1521 1521 1521 1521 1521 1521 1521 1522 1522 1522 1522
1504 1504 1505 1506 1507 1508 1508 1509 1510 1510 1511 1512 1513 1513 1514 1514 1515 1515 1516 1516 1516 1516 1516 1517 1517 1517 1518 1518 1518 1518 1519 1519 1519 1519 1519 1519 1520 1520 1520 1520 1520 1520 1520 1520 1520 1520 1520 1520 1520 1520 1520 1519 1519 1519 1519 1519 1519 1519 1519 1519 1519 1519 1519 1520 1520 1520 1520 1520 1520
1502 1503 1504 1504 1505 1506 1507 1507 1508 1509 1509 1510 1511 1511 1512 1513 1513 1513 1514 1514 1514 1514 1515 1515 1515 1516 1516 1516 1516 1517 1517 1517 1517 1518 1518 1518 1518 1518 1518 1518 1518 1519 1519 1518 1518 1518 1518 1518 1518 1518 1518 1518 1518 1518 1518 1518 1518 1518 1518 1518 1518 1518 1518 1518 1518 1518 1519 1519 1519
1501 1501 1502 1503 1504 1504 1505 1506 1506 1507 1508 1508 1509 1509 1510 1511 1511 1511 1512 1512 1513 1513 1513 1514 1514 1514 1514 1514 1515 1515 1515 1515 1516 1516 1516 1516 1516 1516 1516 1516 1517 1517 1517 1517 1517 1516 1516 1516 1516 1516 1516 1516 1516 1516 1516 1516 1516 1516 1516 1517 1517 1517 1517 1517 1517 1517 1517 1517 1517
1499 1500 1501 1501 1502 1503 1504 1504 1505 1505 1506 1507 1507 1508 1509 1509 1509 1510 1510 1511 1511 1511 1512 1512 1512 1513 1513 1513 1513 1514 1514 1514 1514 1514 1514 1514 1515 1515 1515 1515 1515 1515 1515 1515 1515 1515 1515 1515 1515 1515 1515 1515 1515 1515 1515 1515 1515 1515 1515 1515 1515 1515 1515 1515 1515 1515 1515 1515 1515
1498 1499 1499 1500 1501 1501 1502 1503 1503 1504 1504 1505 1506 1507 1507 1508 1508 1509 1509 1509 1510 1510 1510 1510 1511 1511 1511 1511 1512 1512 1512 1512 1512 1513 1513 1513 1513 1513 1513 1513 1513 1513 1513 1513 1514 1514 1514 1514 1514 1514 1514 1514 1514 1514 1514 1514 1514 1514 1514 1514 1514 1514 1514 1514 1514 1514 1514 1514 1514
1497 1498 1498 1499 1499 1500 1501 1502 1502 1503 1503 1504 1504 1505 1506 1506 1507 1507 1508 1508 1509 1509 1509 1509 1509 1509 1509 1510 1510 1510 1510 1511 1511 1511 1511 1511 1511 1511 1511 1511 1511 1511 1511 1512 1512 1512 1512 1512 1512 1512 1512 1512 1512 1512 1512 1512 1512 1512 1512 1512 1512 1512 1512 1512 1512 1512 1512 1512 1512
1496 1496 1497 1498 1499 1499 1500 1500 1501 1502 1502 1503 1504 1504 1504 1505 1506 1506 1506 1507 1507 1507 1508 1508 1508 1508 1508 1508 1509 1509 1509 1509 1509 1509 1509 1509 1510 1510 1510 1510 1510 1510 1510 1510 1510 1510 1510 1510 1510 1511 1511 1511 1511 1511 1511 1511 1511 1511 1511 1511 1511 1511 1511 1511 1511 1511 1511 1510 1511
1494 1495 1496 1497 1498 1499 1499 1500 1500 1501 1501 1502 1503 1503 1504 1504 1504 1505 1505 1505 1506 1506 1506 1506 1506 1507 1507 1507 1507 1507 1508 1508 1508 1508 1508 1508 1508 1508 1508 1508 1508 1508 1508 1508 1508 1509 1509 1509 1509 1509 1509 1509 1509 1509 1509 1509 1509 1509 1509 1509 1509 1509 1509 1509 1509 1509 1509 1509 1509
1494 1494 1495 1496 1497 1498 1498 1499 1499 1500 1500 1501 1502 1502 1503 1503 1503 1504 1504 1504 1504 1505 1505 1505 1505 1505 1505 1505 1506 1506 1506 1506 1506 1506 1506 1506 1506 1506 1506 1506 1506 1506 1506 1506 1506 1507 1507 1507 1507 1507 1507 1507 1507 1507 1507 1507 1508 1508 1508 1508 1508 1508 1508 1507 1507 1507 1507 1507 1507
1493 1494 1494 1495 1496 1497 1497 1498 1499 1499 1499 1500 1500 1501 1501 1502 1502 1502 1503 1503 1503 1504 1504 1504 1504 1504 1504 1504 1504 1504 1504 1504 1504 1504 1504 1504 1504 1504 1504 1504 1504 1504 1504 1504 1504 1504 1504 1505 1505 1505 1505 1505 1505 1505 1505 1505 1505 1506 1506 1506 1506 1506 1506 1505 1505 1505 1505 1505 1505
1492 1493 1494 1494 1495 1496 1496 1497 1497 1498 1498 1499 1499 1500 1500 1501 1501 1501 1501 1501 1502 1502 1502 1502 1502 1502 1502 1502 1502 1502 1502 1502 1502 1502 1502 1502 1502 1501 1501 1501 1501 1501 1502 1502 1502 1502 1502 1503 1503 1503 1503 1503 1503 1503 1503 1503 1504 1504 1504 1504 1504 1504 1504 1504 1503 1503 1503 1503 1503
1491 1492 1493 1493 1494 1494 1495 1495 1496 1497 1497 1498 1498 1499 1499 1499 1499 1500 1500 1500 1500 1500 1500 1500 1501 1501 1501 1501 1500 1500 1500 1500 1500 1499 1499 1499 1499 1499 1499 1499 1499 1499 1499 1499 1499 1500 1500 1500 1500 1500 1501 1501 1501 1501 1501 1501 1501 1501 1502 1502 1502 1501 1501 1501 1501 1501 1501 1501 1501
1490 1491 1491 1492 1493 1493 1494 1494 1495 1495 1496 1496 1497 1497 1498 1498 1498 1498 1498 1498 1498 1499 1499 1499 1499 1499 1499 1499 1499 1499 1498 1498 1498 1497 1497 1497 1497 1497 1496 1496 1497 1497 1497 1497 1497 1497 1497 1498 1498 1498 1498 1499 1499 1499 1499 1499 1499 1499 1499 1499 1499 1499 1499 1499 1499 1499 1499 1499 1499
1489 1489 1490 1491 1491 1492 1493 1493 1494 1494 1494 1495 1495 1496 1496 1496 1497 1497 1497 1497 1497 1497 1497 1497 1497 1497 1497 1497 1497 1497 1496 1496 1496 1495 1495 1495 1495 1494 1494 1494 1494 1494 1494 1494 1494 1495 1495 1495 1496 1496 1496 1496 1496 1497 1497 1497 1497 1497 1497 1497 1497 1497 1497 1497 1497 1498 1498 1498 1498
1488 1488 1489 1489 1490 1491 1491 1492 1492 1493 1493 1494 1494 1494 1495 1495 1495 1495 1495 1495 1495 1495 1495 1495 1495 1495 1495 1495 1495 1494 1494 1494 1494 1493 1493 1493 1492 1492 1492 1492 1492 1492 1492 1492 1492 1492 1493 1493 1493 1494 1494 1494 1494 1494 1495 1495 1495 1495 1495 1495 1495 1495 1495 1495 1496 1496 1496 1496 1496
1487 1487 1488 1488 1489 1489 1490 1490 1491 1491 1492 1492 1493 1493 1494 1494 1494 1494 1494 1494 1494 1494 1494 1494 1493 1493 1493 1493 1493 1492 1492 1492 1491 1491 1491 1490 1490 1489 1489 1489 1489 1490 1490 1490 1490 1490 1490 1490 1491 1491 1492 1492 1492 1493 1493 1493 1493 1493 1493 1494 1494 1494 1494 1494 1494 1494 1494 1494 1494
1485 1486 1487 1487 1488 1488 1489 1489 1490 1490 1491 1491 1491 1492 1492 1492 1492 1492 1492 1492 1492 1492 1492 1492 1492 1492 1491 1491 1491 1490 1490 1489 1489 1489 1489 1488 1488 1487 1487 1487 1487 1487 1488 1488 1488 1488 1488 1488 1489 1489 1490 1490 1490 1491 1491 1491 1491 1491 1491 1492 1492 1492 1492 1492 1492 1493 1493 1493 1493
1484 1485 1485 1486 1486 1487 1487 1488 1488 1489 1489 1489 1490 1490 1490 1491 1491 1491 1491 1491 1491 1491 1490 1490 1490 1490 1489 1489 1489 1489 1488 1488 1487 1487 1486 1486 1485 1485 1484 1484 1485 1485 1485 1485 1485 1486 1486 1486 1487 1487 1488 1488 1489 1489 1489 1489 1489 1489 1490 1490 1490 1490 1490 1491 1491 1491 1491 1492 1492
1483 1484 1484 1485 1485 1485 1486 1486 1487 1487 1488 1488 1489 1489 1489 1489 1489 1489 1489 1489 1489 1489 1489 1489 1488 1488 1488 1487 1487 1487 1486 1485 1485 1484 1484 1483 1483 1482 1482 1482 1482 1483 1483 1483 1484 1484 1484 1484 1484 1485 1485 1486 1487 1487 1487 1487 1488 1488 1488 1488 1489 1489 1489 1489 1490 1490 1490 1491 1491
1482 1483 1483 1484 1484 1484 1485 1485 1485 1486 1486 1487 1487 1487 1487 1488 1488 1488 1487 1487 1487 1487 1487 1487 1486 1486 1486 1485 1485 1484 1484 1483 1483 1482 1481 1481 1480 1480 1480 1480 1480 1480 1481 1481 1481 1482 1482 1482 1483 1483 1484 1484 1485 1485 1485 1486 1486 1486 1487 1487 1487 1488 1488 1489 1489 1489 1490 1490 1490
1481 1481 1482 1482 1483 1483 1483 1484 1484 1484 1485 1485 1485 1485 1486 1486 1486 1486 1485 1485 1485 1485 1485 1484 1484 1484 1484 1483 1482 1482 1481 1481 1480 1479 1479 1479 1478 1478 1478 1478 1478 1478 1479 1479 1480 1480 1480 1481 1481 1481 1482 1483 1483 1483 1484 1484 1485 1485 1485 1486 1486 1487 1487 1488 1488 1489 1489 1489 1489
1479 1480 1480 1481 1481 1482 1482 1482 1483 1483 1483 1483 1484 1484 1484 1484 1484 1484 1484 1484 1483 1483 1483 1483 1482 1482 1481 1481 1480 1480 1479 1479 1478 1478 1477 1477 1476 1476 1476 1476 1476 1477 1477 1478 1478 1478 1479 1479 1479 1480 1480 1481 1482 1482 1483 1483 1484 1484 1484 1485 1485 1486 1486 1487 1487 1488 1488 1489 1489
1478 1479 1479 1480 1480 1480 1480 1481 1481 1481 1481 1482 1482 1482 1482 1482 1482 1482 1482 1482 1481 1481 1481 1481 1480 1480 1479 1479 1479 1478 1477 1477 1476 1475 1475 1475 1475 1475 1475 1475 1475 1475 1476 1476 1477 1477 1477 1477 1478 1479 1479 1480 1480 1481 1481 1482 1483 1483 1484 1484 1484 1485 1485 1486 1486 1487 1487 1488 1488
1477 1477 1478 1478 1479 1479 1479 1479 1479 1479 1480 1480 1480 1480 1480 1481 1481 1480 1480 1480 1479 1479 1479 1479 1478 1478 1478 1477 1477 1476 1476 1475 1474 1474 1474 1473 1474 1474 1474 1474 1474 1474 1474 1475 1475 1476 1476 1476 1477 1477 1478 1479 1479 1480 1480 1481 1482 1482 1483 1483 1484 1484 1484 1485 1486 1486 1487 1487 1488
1475 1476 1476 1477 1477 1477 1478 1478 1478 1478 1478 1478 1479 1479 1479 1479 1479 1479 1478 1478 1478 1477 1477 1476 1476 1476 1475 1475 1474 1474 1474 1474 1473 1472 1472 1472 1472 1473 1473 1473 1473 1474 1474 1474 1474 1474 1475 1475 1476 1477 1477 1478 1478 1479 1479 1480 1481 1481 1482 1482 1483 1483 1484 1484 1485 1485 1486 1486 1487
1474 1474 1474 1475 1475 1476 1476 1476 1476 1476 1477 1477 1477 1477 1477 1477 1477 1477 1476 1476 1476 1475 1475 1474 1474 1474 1474 1473 1473 1473 1472 1472 1471 1471 1471 1471 1471 1472 1472 1472 1472 1473 1473 1473 1473 1474 1474 1474 1475 1476 1476 1477 1478 1478 1479 1479 1480 1480 1481 1481 1482 1483 1483 1484 1484 1485 1485 1486 1486
1472 1472 1473 1473 1474 1474 1474 1475 1475 1475 1475 1475 1475 1475 1476 1476 1475 1475 1475 1474 1474 1474 1473 1472 1472 1472 1472 1472 1471 1471 1470 1470 1470 1470 1470 1470 1470 1471 1471 1471 1471 1472 1472 1472 1472 1473 1473 1474 1474 1475 1476 1476 1477 1477 1478 1478 1479 1479 1480 1480 1481 1482 1482 1483 1484 1484 1485 1485 1486
1470 1471 1471 1471 1472 1472 1473 1473 1473 1474 1474 1474 1474 1474 1474 1474 1474 1473 1473 1473 1472 1472 1471 1471 1470 1470 1470 1470 1470 1469 1469 1469 1469 1469 1469 1469 1469 1470 1470 1470 1471 1471 1471 1471 1472 1472 1473 1473 1474 1474 1475 1475 1476 1477 1477 1478 1478 1479 1479 1480 1480 1481 1482 1483 1483 1484 1484 1485 1485
1468 1469 1469 1470 1470 1471 1471 1471 1472 1472 1472 1472 1472 1472 1472 1472 1472 1472 1471 1471 1470 1470 1469 1469 1469 1469 1468 1468 1468 1468 1468 1468 1468 1468 1468 1468 1469 1469 1469 1469 1470 1470 1470 1471 1471 1471 1472 1472 1473 1474 1474 1475 1475 1476 1477 1477 1478 1478 1479 1479 1480 1480 1481 1482 1482 1483 1484 1484 1485
1466 1467 1467 1468 1469 1469 1469 1470 1470 1470 1470 1470 1471 1471 1471 1470 1470 1470 1469 1469 1469 1468 1468 1468 1467 1467 1467 1467 1467 1467 1467 1467 1467 1467 1467 1468 1468 1468 1469 1469 1469 1469 1470 1470 1470 1471 1471 1472 1472 1473 1474 1474 1475 1475 1476 1477 1477 1478 1478 1479 1479 1480 1481 1481 1482 1482 1483 1484 1484